CW0467 Weather Reports


time (UTC)temp
C
wind
direction
speed
KPH
gust
KPH
rain 1hr
cm
rain 24hr
cm
rain mn
cm
humidity
%
barometer
mb
20260505091709 10 167 3.2 9.7 0.00 0.00 0.00 87 1010.9
20260505085711 10 242 4.8 9.7 0.00 0.00 0.00 87 1011.0
20260505084710 9 233 3.2 11.3 0.00 0.00 0.00 86 1011.0
20260505082710 10 186 0.0 0.0 0.00 0.00 0.00 86 1011.0
20260505075710 10 205 1.6 4.8 0.00 0.00 0.00 86 1011.1
20260505073710 10 222 1.6 8.0 0.00 0.00 0.00 85 1011.3
20260505070711 10 242 1.6 3.2 0.00 0.00 0.00 84 1011.2
20260505063710 10 226 3.2 4.8 0.00 0.00 0.00 83 1011.2
20260505062710 10 171 0.0 8.0 0.00 0.00 0.00 83 1011.2
20260505055711 11 203 3.2 8.0 0.00 0.00 0.00 81 1011.2
20260505054711 11 231 4.8 9.7 0.00 0.00 0.00 81 1011.2
20260505053710 11 224 3.2 9.7 0.00 0.00 0.00 80 1011.2
20260505050709 11 239 3.2 9.7 0.00 0.00 0.00 79 1011.2
20260505034710 11 232 3.2 14.5 0.00 0.00 0.00 77 1011.3
20260505032711 11 226 3.2 16.1 0.00 0.00 0.00 76 1011.3
20260505030710 11 208 4.8 12.9 0.00 0.00 0.00 75 1011.4
20260505024710 12 206 6.4 12.9 0.00 0.00 0.00 74 1011.4
20260505022710 12 236 4.8 11.3 0.00 0.00 0.00 72 1011.4
20260505015710 12 252 8.0 14.5 0.00 0.00 0.00 71 1011.3
20260505014711 12 246 8.0 14.5 0.00 0.00 0.00 71 1011.2
20260505012709 12 265 4.8 16.1 0.00 0.00 0.00 70 1011.0
20260505010710 13 247 8.0 14.5 0.00 0.00 0.00 69 1010.7
20260505004710 13 229 8.0 14.5 0.00 0.00 0.00 67 1010.4
20260505002711 13 256 9.7 14.5 0.00 0.00 0.00 64 1009.9
20260504235711 14 217 8.0 16.1 0.00 0.00 0.00 59 1009.6
20260504231710 15 251 6.4 14.5 0.00 0.00 0.00 51 1009.2
20260504230711 15 239 9.7 19.3 0.00 0.00 0.00 50 1008.9
20260504225710 16 247 9.7 16.1 0.00 0.00 0.00 49 1008.8
20260504224710 16 229 8.0 20.9 0.00 0.00 0.00 48 1008.6
20260504222710 16 247 11.3 20.9 0.00 0.00 0.00 46 1008.4
20260504215710 17 203 4.8 19.3 0.00 0.00 0.00 45 1008.2
20260504214711 18 224 8.0 14.5 0.00 0.00 0.00 44 1008.1
20260504205711 18 207 11.3 20.9 0.00 0.00 0.00 40 1007.9
20260504202710 18 229 8.0 22.5 0.00 0.00 0.00 38 1007.8
20260504201711 18 225 4.8 33.8 0.00 0.00 0.00 39 1007.8
20260504194710 19 216 8.0 25.7 0.00 0.00 0.00 37 1007.8
20260504193710 19 204 14.5 29.0 0.00 0.00 0.00 36 1007.6
20260504192711 20 216 12.9 22.5 0.00 0.00 0.00 35 1007.6
20260504185710 20 226 9.7 22.5 0.00 0.00 0.00 33 1007.7
20260504184710 21 238 9.7 24.1 0.00 0.00 0.00 32 1007.9
20260504182710 21 212 9.7 20.9 0.00 0.00 0.00 31 1008.0
20260504180711 21 251 8.0 24.1 0.00 0.00 0.00 30 1008.1
20260504175715 21 211 11.3 33.8 0.00 0.00 0.00 32 1008.0
20260504173710 21 270 6.4 24.1 0.00 0.00 0.00 30 1008.0
20260504172710 21 249 9.7 24.1 0.00 0.00 0.00 30 1007.9
20260504150711 19 220 4.8 16.1 0.00 0.00 0.00 36 1009.4
20260504130710 15 228 8.0 14.5 0.00 0.00 0.00 47 1010.6
20260504110709 8 261 0.0 4.8 0.00 0.00 0.00 66 1010.6